Time,TemperatureF,DewpointF,PressureIn,WindDirection,WindDirectionDegrees,WindSpeedMPH,WindSpeedGustMPH,Humidity,HourlyPrecipIn,Conditions,Clouds,dailyrainin,SoftwareType,DateUTC
2013-03-24 00:03:00,27.7,27.0,30.12,NNW,340,3.0,11.0,95,0.00,,,0.00,weatherlink.com 1.10,2013-03-24 05:03:00,
2013-03-24 00:18:00,27.8,27.0,30.11,NNE,12,6.0,9.0,95,0.00,,,0.00,weatherlink.com 1.10,2013-03-24 05:18:00,
2013-03-24 00:33:00,27.8,26.0,30.11,North,355,4.0,10.0,94,0.00,,,0.00,weatherlink.com 1.10,2013-03-24 05:33:00,
2013-03-24 00:48:00,28.0,27.0,30.11,North,9,5.0,12.0,95,0.00,,,0.00,weatherlink.com 1.10,2013-03-24 05:48:00,
2013-03-24 01:03:00,28.0,27.0,30.11,North,355,10.0,16.0,95,0.00,,,0.00,weatherlink.com 1.10,2013-03-24 06:03:00,
2013-03-24 01:18:00,27.9,26.0,30.11,North,9,10.0,15.0,94,0.00,,,0.00,weatherlink.com 1.10,2013-03-24 06:18:00,
2013-03-24 01:33:00,27.6,26.0,30.11,NW,326,4.0,14.0,94,0.00,,,0.00,weatherlink.com 1.10,2013-03-24 06:33:00,
2013-03-24 01:48:00,27.2,26.0,30.11,NNW,340,7.0,19.0,95,0.00,,,0.00,weatherlink.com 1.10,2013-03-24 06:48:00,
2013-03-24 02:03:00,27.0,26.0,30.10,NW,315,11.0,14.0,95,0.00,,,0.00,weatherlink.com 1.10,2013-03-24 07:03:00,
2013-03-24 02:18:00,26.7,25.0,30.10,NNE,16,6.0,17.0,94,0.00,,,0.00,weatherlink.com 1.10,2013-03-24 07:18:00,
2013-03-24 02:34:00,26.5,25.0,30.10,NNW,348,4.0,14.0,94,0.00,,,0.00,weatherlink.com 1.10,2013-03-24 07:34:00,
2013-03-24 02:49:00,26.2,25.0,30.10,NNW,346,6.0,14.0,94,0.00,,,0.00,weatherlink.com 1.10,2013-03-24 07:49:00,
2013-03-24 03:04:00,26.1,25.0,30.10,NW,319,17.0,17.0,94,0.00,,,0.00,weatherlink.com 1.10,2013-03-24 08:04:00,
2013-03-24 03:19:00,26.2,25.0,30.09,NW,306,8.0,18.0,94,0.00,,,0.00,weatherlink.com 1.10,2013-03-24 08:19:00,
2013-03-24 03:34:00,26.2,25.0,30.10,NNW,338,10.0,18.0,94,0.00,,,0.00,weatherlink.com 1.10,2013-03-24 08:34:00,
2013-03-24 03:49:00,25.6,24.0,30.09,North,355,14.0,21.0,94,0.00,,,0.00,weatherlink.com 1.10,2013-03-24 08:49:00,
2013-03-24 04:04:00,25.1,23.0,30.09,NNE,23,13.0,17.0,93,0.00,,,0.00,weatherlink.com 1.10,2013-03-24 09:04:00,
2013-03-24 04:19:00,24.7,23.0,30.09,NNW,337,6.0,18.0,93,0.00,,,0.00,weatherlink.com 1.10,2013-03-24 09:19:00,
2013-03-24 04:34:00,24.4,23.0,30.09,NNW,338,6.0,16.0,93,0.00,,,0.00,weatherlink.com 1.10,2013-03-24 09:34:00,
2013-03-24 04:49:00,24.2,22.0,30.09,North,355,7.0,19.0,92,0.00,,,0.00,weatherlink.com 1.10,2013-03-24 09:49:00,
2013-03-24 05:04:00,24.1,22.0,30.09,North,360,10.0,14.0,93,0.00,,,0.00,weatherlink.com 1.10,2013-03-24 10:04:00,
2013-03-24 05:19:00,23.9,22.0,30.08,North,5,6.0,15.0,93,0.00,,,0.00,weatherlink.com 1.10,2013-03-24 10:19:00,
2013-03-24 05:34:00,23.8,22.0,30.08,NNE,22,9.0,15.0,93,0.00,,,0.00,weatherlink.com 1.10,2013-03-24 10:34:00,
2013-03-24 05:49:00,23.8,22.0,30.08,NNE,13,10.0,14.0,93,0.00,,,0.00,weatherlink.com 1.10,2013-03-24 10:49:00,
2013-03-24 06:04:00,24.0,23.0,30.09,North,350,5.0,15.0,94,0.00,,,0.00,weatherlink.com 1.10,2013-03-24 11:04:00,
2013-03-24 06:19:00,24.3,23.0,30.08,North,360,6.0,13.0,93,0.00,,,0.00,weatherlink.com 1.10,2013-03-24 11:19:00,
2013-03-24 06:34:00,24.4,23.0,30.09,NW,314,2.0,15.0,93,0.00,,,0.00,weatherlink.com 1.10,2013-03-24 11:34:00,
2013-03-24 06:49:00,24.4,23.0,30.09,NNE,21,7.0,13.0,93,0.00,,,0.00,weatherlink.com 1.10,2013-03-24 11:49:00,
2013-03-24 07:04:00,24.6,23.0,30.09,North,9,3.0,11.0,93,0.00,,,0.00,weatherlink.com 1.10,2013-03-24 12:04:00,
2013-03-24 07:19:00,24.9,23.0,30.08,NW,323,2.0,13.0,93,0.00,,,0.00,weatherlink.com 1.10,2013-03-24 12:19:00,
2013-03-24 07:34:00,25.2,24.0,30.08,NNW,329,10.0,14.0,93,0.00,,,0.00,weatherlink.com 1.10,2013-03-24 12:34:00,
2013-03-24 07:49:00,25.3,24.0,30.08,NNW,333,6.0,16.0,93,0.00,,,0.00,weatherlink.com 1.10,2013-03-24 12:49:00,
2013-03-24 08:04:00,24.9,23.0,30.08,NW,309,14.0,20.0,92,0.00,,,0.00,weatherlink.com 1.10,2013-03-24 13:04:00,
2013-03-24 08:19:00,25.0,23.0,30.08,WNW,289,8.0,19.0,92,0.00,,,0.00,weatherlink.com 1.10,2013-03-24 13:19:00,
2013-03-24 08:34:00,25.0,23.0,30.08,WNW,302,9.0,21.0,92,0.00,,,0.00,weatherlink.com 1.10,2013-03-24 13:34:00,
2013-03-24 08:49:00,24.7,23.0,30.09,WNW,296,8.0,18.0,92,0.00,,,0.00,weatherlink.com 1.10,2013-03-24 13:49:00,
2013-03-24 09:04:00,24.6,22.0,30.09,WNW,299,20.0,24.0,91,0.00,,,0.00,weatherlink.com 1.10,2013-03-24 14:04:00,
2013-03-24 09:19:00,24.5,22.0,30.08,NW,320,9.0,17.0,91,0.00,,,0.00,weatherlink.com 1.10,2013-03-24 14:19:00,
2013-03-24 09:34:00,24.5,22.0,30.08,NW,309,16.0,18.0,91,0.00,,,0.00,weatherlink.com 1.10,2013-03-24 14:34:00,
2013-03-24 09:49:00,24.7,23.0,30.08,NNW,331,10.0,23.0,91,0.00,,,0.00,weatherlink.com 1.10,2013-03-24 14:49:00,
2013-03-24 10:04:00,24.7,22.0,30.09,NW,306,12.0,23.0,90,0.00,,,0.00,weatherlink.com 1.10,2013-03-24 15:04:00,
2013-03-24 10:19:00,24.9,22.0,30.09,NW,306,15.0,19.0,90,0.00,,,0.00,weatherlink.com 1.10,2013-03-24 15:19:00,
2013-03-24 10:34:00,24.8,22.0,30.09,WNW,302,10.0,18.0,90,0.00,,,0.00,weatherlink.com 1.10,2013-03-24 15:34:00,
2013-03-24 10:49:00,24.8,22.0,30.09,West,280,9.0,17.0,89,0.00,,,0.00,weatherlink.com 1.10,2013-03-24 15:49:00,
2013-03-24 11:04:00,24.6,22.0,30.09,NW,305,12.0,21.0,88,0.00,,,0.00,weatherlink.com 1.10,2013-03-24 16:04:00,
2013-03-24 11:19:00,24.5,21.0,30.09,NW,313,11.0,23.0,87,0.00,,,0.00,weatherlink.com 1.10,2013-03-24 16:19:00,
2013-03-24 11:34:00,24.3,21.0,30.09,West,273,11.0,22.0,86,0.00,,,0.00,weatherlink.com 1.10,2013-03-24 16:34:00,
2013-03-24 11:50:00,24.4,21.0,30.09,NW,306,8.0,22.0,86,0.00,,,0.00,weatherlink.com 1.10,2013-03-24 16:50:00,
2013-03-24 12:05:00,24.5,21.0,30.09,NW,304,10.0,19.0,86,0.00,,,0.00,weatherlink.com 1.10,2013-03-24 17:05:00,
2013-03-24 12:20:00,24.8,21.0,30.09,WNW,293,15.0,22.0,84,0.00,,,0.00,weatherlink.com 1.10,2013-03-24 17:20:00,
2013-03-24 12:35:00,25.6,21.0,30.09,WNW,294,13.0,22.0,82,0.00,,,0.00,weatherlink.com 1.10,2013-03-24 17:35:00,
2013-03-24 12:50:00,26.0,21.0,30.08,NW,319,10.0,22.0,80,0.00,,,0.00,weatherlink.com 1.10,2013-03-24 17:50:00,
2013-03-24 13:05:00,26.1,20.0,30.08,NW,310,13.0,26.0,79,0.00,,,0.00,weatherlink.com 1.10,2013-03-24 18:05:00,
2013-03-24 13:20:00,25.8,20.0,30.08,WNW,298,16.0,26.0,77,0.00,,,0.00,weatherlink.com 1.10,2013-03-24 18:20:00,
2013-03-24 13:35:00,26.0,20.0,30.08,WNW,296,11.0,25.0,77,0.00,,,0.00,weatherlink.com 1.10,2013-03-24 18:35:00,
2013-03-24 13:50:00,26.2,20.0,30.08,NW,311,16.0,22.0,76,0.00,,,0.00,weatherlink.com 1.10,2013-03-24 18:50:00,
2013-03-24 14:05:00,26.4,20.0,30.07,WNW,291,11.0,24.0,76,0.00,,,0.00,weatherlink.com 1.10,2013-03-24 19:05:00,
2013-03-24 14:20:00,26.7,20.0,30.07,WNW,297,16.0,24.0,75,0.00,,,0.00,weatherlink.com 1.10,2013-03-24 19:20:00,
2013-03-24 14:35:00,26.0,19.0,30.07,WNW,291,19.0,25.0,76,0.00,,,0.00,weatherlink.com 1.10,2013-03-24 19:35:00,
2013-03-24 14:50:00,27.0,20.0,30.07,WNW,285,17.0,20.0,75,0.00,,,0.00,weatherlink.com 1.10,2013-03-24 19:50:00,
2013-03-24 15:05:00,26.7,20.0,30.07,NW,309,10.0,22.0,75,0.00,,,0.00,weatherlink.com 1.10,2013-03-24 20:05:00,
2013-03-24 15:20:00,26.7,20.0,30.06,WNW,300,14.0,20.0,76,0.00,,,0.00,weatherlink.com 1.10,2013-03-24 20:20:00,
2013-03-24 15:35:00,26.4,20.0,30.06,West,277,14.0,24.0,76,0.00,,,0.00,weatherlink.com 1.10,2013-03-24 20:35:00,
2013-03-24 15:50:00,26.6,20.0,30.06,WNW,288,17.0,25.0,76,0.00,,,0.00,weatherlink.com 1.10,2013-03-24 20:50:00,
2013-03-24 16:05:00,26.5,20.0,30.06,North,9,8.0,22.0,76,0.00,,,0.00,weatherlink.com 1.10,2013-03-24 21:05:00,
2013-03-24 16:20:00,26.6,20.0,30.06,WNW,300,12.0,25.0,76,0.00,,,0.00,weatherlink.com 1.10,2013-03-24 21:20:00,
2013-03-24 16:35:00,26.5,20.0,30.06,NW,314,14.0,21.0,77,0.00,,,0.00,weatherlink.com 1.10,2013-03-24 21:35:00,
2013-03-24 16:50:00,26.4,20.0,30.06,West,281,10.0,26.0,75,0.00,,,0.00,weatherlink.com 1.10,2013-03-24 21:50:00,
2013-03-24 17:05:00,26.3,20.0,30.07,WNW,302,11.0,28.0,76,0.00,,,0.00,weatherlink.com 1.10,2013-03-24 22:05:00,
2013-03-24 17:20:00,26.2,19.0,30.07,WNW,296,9.0,27.0,75,0.00,,,0.00,weatherlink.com 1.10,2013-03-24 22:20:00,
2013-03-24 17:35:00,26.4,19.0,30.07,WNW,290,18.0,26.0,73,0.00,,,0.00,weatherlink.com 1.10,2013-03-24 22:35:00,
2013-03-24 17:50:00,26.5,20.0,30.07,West,277,13.0,24.0,75,0.00,,,0.00,weatherlink.com 1.10,2013-03-24 22:50:00,
2013-03-24 18:05:00,26.4,19.0,30.08,WNW,292,13.0,25.0,74,0.00,,,0.00,weatherlink.com 1.10,2013-03-24 23:05:00,
2013-03-24 18:20:00,26.4,20.0,30.09,WNW,293,14.0,19.0,75,0.00,,,0.00,weatherlink.com 1.10,2013-03-24 23:20:00,
2013-03-24 18:35:00,26.5,20.0,30.09,WNW,294,19.0,20.0,76,0.00,,,0.00,weatherlink.com 1.10,2013-03-24 23:35:00,
2013-03-24 18:50:00,26.4,20.0,30.09,WNW,289,10.0,23.0,76,0.00,,,0.00,weatherlink.com 1.10,2013-03-24 23:50:00,
2013-03-24 19:05:00,26.2,21.0,30.10,WNW,302,8.0,18.0,79,0.00,,,0.00,weatherlink.com 1.10,2013-03-25 00:05:00,
2013-03-24 19:20:00,26.1,20.0,30.10,NW,315,15.0,22.0,79,0.00,,,0.00,weatherlink.com 1.10,2013-03-25 00:20:00,
2013-03-24 19:35:00,25.8,21.0,30.10,WNW,300,11.0,16.0,81,0.00,,,0.00,weatherlink.com 1.10,2013-03-25 00:35:00,
2013-03-24 19:50:00,25.8,21.0,30.10,WNW,296,7.0,15.0,81,0.00,,,0.00,weatherlink.com 1.10,2013-03-25 00:50:00,
2013-03-24 20:05:00,25.8,20.0,30.10,WNW,282,6.0,21.0,80,0.00,,,0.00,weatherlink.com 1.10,2013-03-25 01:05:00,
2013-03-24 20:20:00,25.7,21.0,30.11,WNW,303,10.0,15.0,81,0.00,,,0.00,weatherlink.com 1.10,2013-03-25 01:20:00,
2013-03-24 20:35:00,25.3,21.0,30.11,WNW,285,9.0,19.0,83,0.00,,,0.00,weatherlink.com 1.10,2013-03-25 01:35:00,
2013-03-24 20:50:00,25.1,21.0,30.11,WNW,294,16.0,18.0,85,0.00,,,0.00,weatherlink.com 1.10,2013-03-25 01:50:00,
2013-03-24 21:05:00,24.9,21.0,30.11,WNW,300,8.0,16.0,85,0.00,,,0.00,weatherlink.com 1.10,2013-03-25 02:05:00,
2013-03-24 21:20:00,25.0,21.0,30.11,WNW,293,7.0,16.0,86,0.00,,,0.00,weatherlink.com 1.10,2013-03-25 02:20:00,
2013-03-24 21:35:00,25.0,21.0,30.11,WNW,295,13.0,16.0,86,0.00,,,0.00,weatherlink.com 1.10,2013-03-25 02:35:00,
2013-03-24 21:50:00,25.0,21.0,30.12,WNW,294,12.0,16.0,86,0.00,,,0.00,weatherlink.com 1.10,2013-03-25 02:50:00,
2013-03-24 22:05:00,25.1,22.0,30.12,West,275,8.0,18.0,86,0.00,,,0.00,weatherlink.com 1.10,2013-03-25 03:05:00,
2013-03-24 22:20:00,25.0,22.0,30.12,WNW,296,9.0,16.0,87,0.00,,,0.00,weatherlink.com 1.10,2013-03-25 03:20:00,
2013-03-24 22:35:00,24.9,22.0,30.12,West,278,10.0,21.0,89,0.00,,,0.00,weatherlink.com 1.10,2013-03-25 03:35:00,
2013-03-24 22:50:00,24.8,22.0,30.12,WNW,287,7.0,17.0,90,0.00,,,0.00,weatherlink.com 1.10,2013-03-25 03:50:00,
2013-03-24 23:05:00,24.9,22.0,30.12,WNW,287,6.0,14.0,90,0.00,,,0.00,weatherlink.com 1.10,2013-03-25 04:05:00,
2013-03-24 23:20:00,25.0,23.0,30.12,WNW,282,9.0,18.0,90,0.00,,,0.00,weatherlink.com 1.10,2013-03-25 04:20:00,
2013-03-24 23:35:00,25.2,23.0,30.11,WNW,300,15.0,20.0,90,0.00,,,0.00,weatherlink.com 1.10,2013-03-25 04:35:00,
2013-03-24 23:50:00,25.4,23.0,30.11,NW,317,6.0,20.0,90,0.00,,,0.00,weatherlink.com 1.10,2013-03-25 04:50:00,